Rochester, NY

4:04 AM EDT on October 23, 2019 (GMT -0400)
Greater Rochester International

Weather History for KROC - May, 2019

Change the Weather History Date:

Tuesday, May 28, 2019

  Actual Average Record
Temperature  
Mean Temperature 55 °F 61 °F  
Max Temperature 59 °F 71 °F 93 °F (1911)
Min Temperature 51 °F 50 °F 35 °F (1949)
Degree Days  
Heating Degree Days 10 6  
Month to date heating degree days 256 260  
Since 1 July heating degree days 6380 6563  
Cooling Degree Days 0 1  
Month to date cooling degree days 10 19  
Year to date cooling degree days 10 23  
Growing Degree Days 6 (Base 50)    
Moisture  
Dew Point 51 °F    
Average Humidity 82    
Maximum Humidity 96    
Minimum Humidity 67    
Precipitation  
Precipitation 0.10 in 0.09 in 1.73 in (2009)
Month to date precipitation 2.59 2.59  
Year to date precipitation 12.52 12.18  
Snow  
Snow 0.00 in 0.00 in 0.00 in ()
Month to date snowfall 0.0 0.4  
Since 1 July snowfall 97.1 99.5  
Snow Depth 0.00 in    
Sea Level Pressure  
Sea Level Pressure 29.75 in    
Wind  
Wind Speed 8 mph (NE)    
Max Wind Speed 15 mph    
Max Gust Speed 20 mph    
Visibility 6 miles    
Events Rain    
T = Trace of Precipitation, MM = Missing Value Source: NWS Daily Summary

Daily Weather History Graph

Daily Weather History Graph

Search for Another Location

Airport or City:

Astronomy

May. 28, 2019 Rise Set
Actual Time 5:36 AM EDT 8:40 PM EDT
Civil Twilight 5:02 AM EDT 9:14 PM EDT
Nautical Twilight 4:18 AM EDT 9:58 PM EDT
Astronomical Twilight 3:26 AM EDT 10:50 PM EDT
Moon 2:59 AM EDT (5/28) 2:36 PM EDT (5/28)
Length of Visible Light 16h 12m
Length of Day
15h 03m
Waning Crescent, 32% of the Moon is Illuminated
May 28
Waning Crescent
Jun 3
New
Jun 10
First Quarter
Jun 17
Full
Jun 25
Last Quarter

Hourly Weather History & Observations

Time (EDT) Temp. Dew Point Humidity Pressure Visibility Wind Dir Wind Speed Gust Speed Precip Events Conditions
12:54 AM 59.0 °F 48.9 °F 69% 29.93 in 10.0 mi ESE 5.8 mph - N/A   Overcast
1:54 AM 59.0 °F 48.9 °F 69% 29.91 in 10.0 mi East 5.8 mph - N/A   Overcast
2:54 AM 59.0 °F 50.0 °F 72% 29.89 in 10.0 mi SSE 6.9 mph - 0.00 in Rain Light Rain
3:54 AM 57.9 °F 52.0 °F 81% 29.85 in 10.0 mi East 6.9 mph - 0.01 in   Overcast
4:54 AM 57.0 °F 52.0 °F 83% 29.83 in 10.0 mi SE 8.1 mph - N/A   Overcast
5:54 AM 57.9 °F 52.0 °F 81% 29.81 in 10.0 mi East 10.4 mph - 0.00 in   Overcast
6:54 AM 57.9 °F 52.0 °F 81% 29.78 in 10.0 mi ESE 11.5 mph - 0.00 in   Light Drizzle
7:54 AM 57.0 °F 53.1 °F 87% 29.75 in 10.0 mi ESE 10.4 mph - 0.00 in   Overcast
8:15 AM 57.0 °F 53.1 °F 87% 29.73 in 2.0 mi ESE 12.7 mph - 0.02 in Rain Light Rain
8:25 AM 57.0 °F 53.1 °F 87% 29.72 in 3.0 mi ESE 9.2 mph - 0.03 in Rain Light Rain
8:54 AM 57.0 °F 54.0 °F 89% 29.72 in 5.0 mi ESE 9.2 mph - 0.03 in Rain Light Rain
8:57 AM 57.0 °F 54.0 °F 89% 29.71 in 2.0 mi ESE 8.1 mph - 0.00 in Rain Light Rain
9:01 AM 57.0 °F 54.0 °F 89% 29.71 in 1.5 mi ESE 8.1 mph - 0.00 in Rain Light Rain
9:23 AM 57.0 °F 54.0 °F 89% 29.70 in 4.0 mi East 10.4 mph - 0.02 in Rain Light Rain
9:54 AM 57.0 °F 54.0 °F 89% 29.70 in 5.0 mi NE 6.9 mph - 0.03 in Rain Rain
10:00 AM 57.0 °F 54.0 °F 89% 29.68 in 2.0 mi NE 6.9 mph - 0.00 in Rain Rain
10:11 AM 54.0 °F 52.0 °F 93% 29.67 in 4.0 mi NNE 9.2 mph - 0.03 in Rain Light Rain
10:54 AM 54.0 °F 52.0 °F 93% 29.67 in 4.0 mi NNE 6.9 mph - 0.03 in   Light Drizzle
11:54 AM 57.9 °F 54.0 °F 87% 29.67 in 5.0 mi NNW 4.6 mph - 0.00 in   Overcast
12:54 PM 59.0 °F 55.0 °F 87% 29.65 in 10.0 mi NNW 6.9 mph - N/A   Overcast
1:54 PM 55.0 °F 51.1 °F 86% 29.68 in 9.0 mi NW 6.9 mph - N/A   Overcast
2:54 PM 53.1 °F 50.0 °F 89% 29.71 in 10.0 mi NNW 9.2 mph - N/A   Overcast
3:54 PM 54.0 °F 50.0 °F 86% 29.70 in 10.0 mi NW 8.1 mph - 0.00 in Rain Light Rain
4:22 PM 55.0 °F 51.1 °F 86% 29.70 in 10.0 mi NNW 9.2 mph - 0.00 in   Overcast
4:46 PM 53.1 °F 50.0 °F 89% 29.71 in 2.0 mi North 8.1 mph - 0.00 in   Overcast
4:54 PM 53.1 °F 51.1 °F 93% 29.72 in 2.0 mi North 8.1 mph - 0.00 in   Overcast
5:00 PM 53.1 °F 50.0 °F 89% 29.71 in 1.0 mi NNW 8.1 mph - N/A   Overcast
5:54 PM 52.0 °F 50.0 °F 93% 29.73 in 1.0 mi North 8.1 mph - 0.00 in   Light Drizzle
6:54 PM 52.0 °F 50.0 °F 93% 29.74 in 1.0 mi NNE 9.2 mph - 0.00 in   Light Drizzle
7:12 PM 52.0 °F 50.0 °F 93% 29.73 in 0.8 mi NNE 8.1 mph - 0.00 in   Light Drizzle
7:45 PM 52.0 °F 50.0 °F 93% 29.73 in 1.0 mi ENE 9.2 mph - 0.00 in   Light Drizzle
7:54 PM 52.0 °F 50.0 °F 93% 29.75 in 1.0 mi NE 8.1 mph - 0.00 in   Light Drizzle
8:54 PM 52.0 °F 50.0 °F 93% 29.77 in 1.0 mi ENE 3.5 mph - 0.00 in   Light Drizzle
9:54 PM 52.0 °F 50.0 °F 93% 29.79 in 10.0 mi NNE 5.8 mph - 0.00 in   Overcast
10:05 PM 52.0 °F 50.0 °F 93% 29.78 in 10.0 mi NNE 4.6 mph - N/A   Overcast
10:54 PM 53.1 °F 48.9 °F 86% 29.79 in 10.0 mi ENE 5.8 mph - N/A   Overcast
11:54 PM 53.1 °F 50.0 °F 89% 29.80 in 10.0 mi NNE 6.9 mph - N/A   Overcast